{"data":{"norad_id":69740,"epoch":"2026-09-19T18:45:00.565056Z","epoch_age_seconds":83567,"freshness":"FRESH","line1":"1 69740U 26150B   26262.78125654  .00019347  00000+0  59939-3 0  9997","line2":"2 69740  97.2895 101.6913 0002041 117.4586 242.6864 15.33479477 13622","mean_motion":15.33479477,"eccentricity":0.0002041,"inclination_deg":97.2895,"raan_deg":101.6913,"arg_perigee_deg":117.4586,"mean_anomaly_deg":242.6864,"bstar":0.00059939,"rev_number":1362,"period_min":93.904093377051,"perigee_km":464.0438229171,"apogee_km":466.83737129223,"semimajor_km":6843.5775971047,"source":"CELESTRAK","updated_at":"2026-09-20T09:00:44.286167Z"}}